[[{"header":{"parameterUnit":"m.s-1","parameterCategory":2,"la1":30.2992,"la2":30.254,"lo1":-89.0895,"lo2":-89.0443,"dy":0.0025,"dx":0.0025,"nx":19,"ny":19,"refTime":"2026-04-16T09:00:00:Z","depth":"0","parameterNumber":2,"parameterNumberName":"U-component_of_CURRENTS"},"data":[0,0,0,-0.0962,-0.0962,-0.0955,-0.0955,-0.0992,-0.0992,0,0,0,0,0,0,0,0,0,0,0,-0.096,-0.096,-0.0962,-0.0962,-0.0955,-0.0955,-0.0992,-0.0992,0,0,0,0,0,0,0,0,0,0,0,-0.0961,-0.096,-0.096,-0.0962,-0.0955,-0.0955,-0.0991,-0.0985,0,0,0,0,0,0,0,0,0,0,-0.0986,-0.0974,-0.096,-0.096,-0.0962,-0.0955,-0.0955,-0.0984,-0.0985,-0.1009,0,-0.1004,0,-0.1003,-0.0996,-0.0996,0,0,0,-0.096,-0.0973,-0.0977,-0.096,-0.0962,-0.0955,-0.0958,-0.0984,-0.0986,-0.101,-0.1005,-0.1006,-0.1004,-0.0996,-0.0996,-0.0971,-0.097,0,0,-0.096,-0.0956,-0.0976,-0.0978,-0.0958,-0.0958,-0.0957,-0.0985,-0.0983,-0.1005,-0.1007,-0.1005,-0.0997,-0.0997,-0.0971,-0.097,0,0,0,-0.0963,-0.0956,-0.0958,-0.0976,-0.0974,-0.0958,-0.0957,-0.0982,-0.0984,-0.1007,-0.1005,-0.0997,-0.0998,-0.0972,-0.0971,-0.0971,0,0,0,-0.0963,-0.0958,-0.0958,-0.0955,-0.0973,-0.0971,-0.0954,-0.0982,-0.0985,-0.1005,-0.0997,-0.0998,-0.0973,-0.0971,-0.0972,-0.0998,0,0,0,-0.0961,-0.0958,-0.0957,-0.0955,-0.0954,-0.097,-0.0973,-0.0982,-0.0984,-0.0996,-0.0998,-0.0973,-0.0972,-0.0974,-0.1,-0.1018,0,0,0,-0.0958,-0.0953,-0.0957,-0.0955,-0.0954,-0.0948,-0.0972,-0.0966,-0.0971,-0.0997,-0.0973,-0.0971,-0.0974,-0.1,-0.1018,-0.1126,-0.1133,0,0,-0.0952,-0.0953,-0.0953,-0.0956,-0.0951,-0.0949,-0.0941,-0.0955,-0.0952,-0.0969,-0.0968,-0.0972,-0.1,-0.1018,-0.103,-0.1041,0,0,0,-0.0951,-0.0949,-0.0948,-0.0947,-0.0945,-0.0946,-0.0944,-0.093,-0.0917,-0.0948,-0.0938,-0.0955,-0.0967,-0.1031,-0.1038,-0.1021,-0.0963,-0.0964,-0.0964,-0.0931,-0.0939,-0.0937,-0.0944,-0.0941,-0.0935,-0.0928,-0.0907,-0.0906,-0.0875,-0.0929,-0.0909,-0.0973,-0.0981,-0.0959,-0.0884,-0.0884,-0.0884,-0.0884,-0.0927,-0.0924,-0.0937,-0.0939,-0.0943,-0.0935,-0.0921,-0.0907,-0.0898,-0.0879,-0.089,-0.0994,-0.099,-0.0964,-0.0883,-0.0883,-0.0884,-0.0884,-0.0884,-0.091,-0.0909,-0.0924,-0.0935,-0.0936,-0.0938,-0.0947,-0.0935,-0.0911,-0.092,-0.1003,-0.1005,-0.101,-0.0927,-0.0927,-0.0927,-0.0927,-0.0927,-0.0927,-0.0885,-0.09,-0.0909,-0.0926,-0.0926,-0.0941,-0.0961,-0.0976,-0.1023,-0.1026,-0.1027,-0.0997,-0.0923,-0.0953,-0.093,-0.0929,-0.0929,-0.0929,-0.0929,-0.0851,-0.0871,-0.0881,-0.089,-0.0902,-0.0908,-0.0973,-0.108,-0.1109,-0.1156,-0.1131,-0.1083,-0.1106,-0.11,-0.1134,-0.1159,-0.1159,-0.1159,-0.1159,-0.0823,-0.0837,-0.0846,-0.0852,-0.0863,-0.0885,-0.0973,-0.1123,-0.1227,-0.1259,-0.1211,-0.1207,-0.1199,-0.1225,-0.1216,-0.1251,-0.1305,-0.1305,-0.1305,-0.0799,-0.081,-0.08,-0.0819,-0.0827,-0.0852,-0.0929,-0.1119,-0.1293,-0.1302,-0.116,-0.1154,-0.1135,-0.1124,-0.1152,-0.1142,-0.1194,0,0]},{"header":{"parameterUnit":"m.s-1","parameterCategory":2,"la1":30.2992,"la2":30.254,"lo1":-89.0895,"lo2":-89.0443,"dy":0.0025,"dx":0.0025,"nx":19,"ny":19,"refTime":"2026-04-16T09:00:00:Z","depth":"0","parameterNumber":3,"parameterNumberName":"V-component_of_CURRENTS"},"data":[0,0,0,-0.0192,-0.0191,-0.0133,-0.0133,-0.0086,-0.0086,0,0,0,0,0,0,0,0,0,0,0,-0.0216,-0.0216,-0.0192,-0.019,-0.0134,-0.0133,-0.0086,-0.0086,0,0,0,0,0,0,0,0,0,0,0,-0.0216,-0.0216,-0.0216,-0.019,-0.0134,-0.0133,-0.0086,-0.0122,0,0,0,0,0,0,0,0,0,0,-0.0174,-0.0192,-0.0216,-0.0216,-0.019,-0.0134,-0.0133,-0.0124,-0.012,-0.012,0,-0.0115,0,-0.0099,-0.0084,-0.0083,0,0,0,-0.0188,-0.0195,-0.0182,-0.0216,-0.019,-0.0134,-0.0158,-0.0121,-0.0117,-0.0116,-0.0115,-0.0112,-0.0098,-0.0083,-0.0083,-0.0057,-0.0057,0,0,-0.0191,-0.0203,-0.0184,-0.0179,-0.018,-0.016,-0.0157,-0.0119,-0.0116,-0.0114,-0.0111,-0.0098,-0.0083,-0.0083,-0.0057,-0.0057,0,0,0,-0.0202,-0.0205,-0.0192,-0.0182,-0.0169,-0.0159,-0.0155,-0.0118,-0.0114,-0.011,-0.0097,-0.0083,-0.0082,-0.0057,-0.0057,-0.0093,0,0,0,-0.0203,-0.0212,-0.0193,-0.02,-0.0169,-0.0138,-0.0155,-0.0117,-0.0112,-0.0097,-0.0083,-0.0082,-0.0057,-0.0057,-0.0092,-0.0108,0,0,0,-0.0218,-0.0213,-0.0209,-0.0201,-0.0177,-0.0138,-0.0132,-0.0115,-0.0104,-0.0083,-0.0082,-0.0057,-0.0057,-0.0091,-0.0106,-0.0117,0,0,0,-0.0229,-0.0237,-0.0209,-0.0212,-0.0177,-0.0168,-0.0132,-0.0119,-0.0106,-0.0083,-0.0057,-0.0057,-0.0091,-0.0105,-0.0116,-0.0216,-0.0229,0,0,-0.0249,-0.0239,-0.0242,-0.0216,-0.021,-0.0175,-0.0173,-0.0137,-0.0102,-0.0071,-0.007,-0.0092,-0.0106,-0.0117,-0.0212,-0.0225,0,0,0,-0.0254,-0.0257,-0.0251,-0.0237,-0.0219,-0.0201,-0.0168,-0.0139,-0.0096,-0.0093,-0.0081,-0.0088,-0.0094,-0.0152,-0.0162,0.0102,-0.0057,-0.0057,-0.0057,-0.0289,-0.0276,-0.0283,-0.0266,-0.0256,-0.022,-0.0198,-0.0151,-0.0125,-0.0101,-0.0109,-0.013,-0.0191,-0.02,0.0074,-0.0098,-0.0098,-0.0098,-0.0098,-0.0323,-0.0328,-0.031,-0.0315,-0.0288,-0.0282,-0.022,-0.0189,-0.0145,-0.0115,-0.0119,-0.0176,-0.0213,0.0083,-0.0101,-0.01,-0.01,-0.01,-0.01,-0.0349,-0.0351,-0.0353,-0.0358,-0.0352,-0.0319,-0.0313,-0.0251,-0.0179,-0.0178,-0.0238,-0.0238,0.0015,-0.0186,-0.0186,-0.0186,-0.0186,-0.0186,-0.0186,-0.0371,-0.0376,-0.04,-0.0404,-0.0415,-0.0412,-0.0364,-0.0347,-0.0321,-0.0283,-0.0283,0.004,-0.0156,-0.0161,-0.0188,-0.0188,-0.0187,-0.0187,-0.0187,-0.0393,-0.0403,-0.0446,-0.0468,-0.0503,-0.0557,-0.0513,-0.0531,-0.0486,-0.05,-0.0076,-0.0333,-0.033,-0.0323,-0.0331,-0.0401,-0.0401,-0.0401,-0.0401,-0.0408,-0.0415,-0.0482,-0.0536,-0.059,-0.0621,-0.0733,-0.0688,-0.0376,-0.0137,-0.0008,0.0033,0.0029,0.006,0.0059,0.0061,0.0093,0.0095,0.0096,-0.0417,-0.0443,-0.0495,-0.0557,-0.063,-0.0713,-0.0844,-0.0696,-0.0108,0.0153,0.039,0.0369,0.0471,0.0444,0.0521,0.0498,0.0511,0,0]}],[{"header":{"parameterUnit":"m.s-1","parameterCategory":2,"la1":30.2992,"la2":30.254,"lo1":-89.0895,"lo2":-89.0443,"dy":0.0025,"dx":0.0025,"nx":19,"ny":19,"refTime":"2026-04-16T09:00:00:Z","depth":"2","parameterNumber":2,"parameterNumberName":"U-component_of_CURRENTS"},"data":[0,0,0,-0.1823,-0.1823,-0.1764,-0.1763,-0.1509,-0.1507,0,0,0,0,0,0,0,0,0,0,0,-0.1819,-0.1819,-0.1823,-0.1823,-0.1764,-0.1763,-0.151,-0.1507,0,0,0,0,0,0,0,0,0,0,0,-0.1819,-0.1819,-0.1818,-0.1823,-0.1764,-0.1763,-0.151,-0.1593,0,0,0,0,0,0,0,0,0,0,-0.167,-0.1685,-0.1819,-0.1818,-0.1823,-0.1764,-0.1763,-0.1599,-0.1588,-0.1493,0,-0.1486,0,-0.1507,-0.1488,-0.1487,0,0,0,-0.1797,-0.1695,-0.1703,-0.1818,-0.1822,-0.1764,-0.1783,-0.1594,-0.1581,-0.1478,-0.1483,-0.1475,-0.1503,-0.1486,-0.1485,-0.1244,-0.1243,0,0,-0.18,-0.1778,-0.1712,-0.1695,-0.1804,-0.1785,-0.1782,-0.1588,-0.1554,-0.1482,-0.1471,-0.1499,-0.1484,-0.1482,-0.1244,-0.1244,0,0,0,-0.1827,-0.178,-0.1795,-0.1703,-0.1716,-0.1784,-0.178,-0.1562,-0.1575,-0.1468,-0.1496,-0.1483,-0.1479,-0.1245,-0.1244,-0.125,0,0,0,-0.1828,-0.1799,-0.1797,-0.1779,-0.1722,-0.1661,-0.1758,-0.1587,-0.1568,-0.1497,-0.1483,-0.1477,-0.1246,-0.1245,-0.1251,-0.1274,0,0,0,-0.1822,-0.1798,-0.1797,-0.1779,-0.1771,-0.1666,-0.1665,-0.1584,-0.1584,-0.1487,-0.1476,-0.1246,-0.1245,-0.1252,-0.1274,-0.1303,0,0,0,-0.1794,-0.1779,-0.1795,-0.1783,-0.1772,-0.1749,-0.1667,-0.1597,-0.1518,-0.1481,-0.1246,-0.1244,-0.1252,-0.1275,-0.1303,-0.143,-0.1441,0,0,-0.1769,-0.1774,-0.1775,-0.1791,-0.1788,-0.1756,-0.1678,-0.153,-0.1461,-0.1293,-0.1288,-0.1251,-0.1274,-0.1303,-0.1354,-0.1368,0,0,0,-0.1765,-0.1756,-0.1762,-0.1758,-0.1757,-0.17,-0.1589,-0.152,-0.1361,-0.1415,-0.1222,-0.1237,-0.1256,-0.133,-0.134,-0.1238,-0.1238,-0.1238,-0.1239,-0.1668,-0.1707,-0.1697,-0.1719,-0.1695,-0.1621,-0.1556,-0.1427,-0.1344,-0.1273,-0.122,-0.1217,-0.1294,-0.1303,-0.1183,-0.1183,-0.1183,-0.1183,-0.1183,-0.1631,-0.162,-0.1648,-0.1643,-0.1613,-0.153,-0.144,-0.1374,-0.1255,-0.1198,-0.1216,-0.1305,-0.1316,-0.1183,-0.1183,-0.1183,-0.1183,-0.1183,-0.1183,-0.1553,-0.1553,-0.1557,-0.1552,-0.1501,-0.1456,-0.1429,-0.1339,-0.1263,-0.1254,-0.1336,-0.1338,-0.1259,-0.1249,-0.1249,-0.125,-0.125,-0.125,-0.125,-0.146,-0.1478,-0.1449,-0.1462,-0.1437,-0.1427,-0.1403,-0.1408,-0.1402,-0.1365,-0.1366,-0.124,-0.1238,-0.1263,-0.1253,-0.1253,-0.1252,-0.1252,-0.1252,-0.1354,-0.1366,-0.1337,-0.1321,-0.134,-0.1389,-0.1446,-0.1551,-0.1552,-0.1586,-0.1444,-0.1438,-0.146,-0.1453,-0.1482,-0.153,-0.153,-0.153,-0.153,-0.1265,-0.1283,-0.1223,-0.1209,-0.1265,-0.1352,-0.1471,-0.1484,-0.1491,-0.1393,-0.1397,-0.1376,-0.1371,-0.1384,-0.1379,-0.1404,-0.1431,-0.143,-0.1429,-0.1191,-0.1193,-0.1119,-0.1136,-0.1208,-0.1342,-0.1422,-0.1356,-0.1259,-0.1406,-0.1185,-0.1561,-0.1545,-0.1531,-0.1563,-0.1549,-0.1595,0,0]},{"header":{"parameterUnit":"m.s-1","parameterCategory":2,"la1":30.2992,"la2":30.254,"lo1":-89.0895,"lo2":-89.0443,"dy":0.0025,"dx":0.0025,"nx":19,"ny":19,"refTime":"2026-04-16T09:00:00:Z","depth":"2","parameterNumber":3,"parameterNumberName":"V-component_of_CURRENTS"},"data":[0,0,0,-0.0469,-0.0469,-0.0466,-0.0466,-0.0399,-0.0398,0,0,0,0,0,0,0,0,0,0,0,-0.0484,-0.0485,-0.0469,-0.0469,-0.0466,-0.0466,-0.0399,-0.0398,0,0,0,0,0,0,0,0,0,0,0,-0.0484,-0.0484,-0.0485,-0.0469,-0.0466,-0.0466,-0.0399,-0.0418,0,0,0,0,0,0,0,0,0,0,-0.0428,-0.0467,-0.0484,-0.0485,-0.0469,-0.0466,-0.0466,-0.0419,-0.0416,-0.0382,0,-0.0395,0,-0.0387,-0.0392,-0.0392,0,0,0,-0.047,-0.047,-0.045,-0.0485,-0.0469,-0.0466,-0.0468,-0.0418,-0.0415,-0.0378,-0.0394,-0.0391,-0.0385,-0.0392,-0.0391,-0.0372,-0.0372,0,0,-0.047,-0.0496,-0.0453,-0.0449,-0.0483,-0.0468,-0.0468,-0.0417,-0.0429,-0.0393,-0.039,-0.0384,-0.0391,-0.039,-0.0371,-0.0372,0,0,0,-0.047,-0.0496,-0.048,-0.0451,-0.0451,-0.0468,-0.0468,-0.0432,-0.0422,-0.0389,-0.0384,-0.0391,-0.039,-0.0371,-0.0372,-0.0425,0,0,0,-0.047,-0.0495,-0.048,-0.0497,-0.0453,-0.0454,-0.0484,-0.0426,-0.042,-0.0384,-0.0391,-0.0389,-0.037,-0.0371,-0.0422,-0.0425,0,0,0,-0.0482,-0.0497,-0.0497,-0.0498,-0.0493,-0.0454,-0.0443,-0.0425,-0.0416,-0.0392,-0.0388,-0.037,-0.0371,-0.042,-0.0422,-0.0414,0,0,0,-0.0505,-0.0529,-0.0499,-0.0515,-0.0493,-0.0487,-0.0443,-0.0445,-0.0433,-0.039,-0.037,-0.0371,-0.0419,-0.042,-0.0412,-0.032,-0.0319,0,0,-0.0543,-0.0534,-0.0537,-0.0509,-0.0506,-0.0487,-0.0502,-0.0471,-0.0435,-0.0381,-0.0381,-0.0423,-0.0422,-0.0413,-0.0383,-0.0379,0,0,0,-0.0553,-0.056,-0.0553,-0.0544,-0.0523,-0.0523,-0.0503,-0.0495,-0.0473,-0.0431,-0.043,-0.0427,-0.042,-0.0362,-0.036,-0.0377,-0.0377,-0.0376,-0.0376,-0.0627,-0.0595,-0.0603,-0.0573,-0.057,-0.0555,-0.0557,-0.0542,-0.0504,-0.0516,-0.0477,-0.0514,-0.0455,-0.0452,-0.0494,-0.0495,-0.0495,-0.0495,-0.0495,-0.0667,-0.0669,-0.0636,-0.0638,-0.0617,-0.063,-0.0601,-0.0591,-0.0563,-0.0541,-0.0531,-0.0429,-0.0452,-0.05,-0.0499,-0.0498,-0.0498,-0.0497,-0.0497,-0.0714,-0.0713,-0.0708,-0.0701,-0.0701,-0.0675,-0.0663,-0.0632,-0.0596,-0.059,-0.0486,-0.0483,-0.0518,-0.0574,-0.0574,-0.0574,-0.0574,-0.0574,-0.0574,-0.0767,-0.0758,-0.0778,-0.0765,-0.0768,-0.0749,-0.0695,-0.0662,-0.0569,-0.0518,-0.0517,-0.0539,-0.0536,-0.0522,-0.0574,-0.0574,-0.0574,-0.0574,-0.0574,-0.0814,-0.0825,-0.0846,-0.0856,-0.0846,-0.0832,-0.075,-0.0616,-0.0567,-0.0503,-0.047,-0.0472,-0.0433,-0.0433,-0.0415,-0.0437,-0.0437,-0.0437,-0.0437,-0.0852,-0.0856,-0.0891,-0.091,-0.0912,-0.0871,-0.0728,-0.0432,-0.0293,-0.0171,-0.0182,-0.0145,-0.0157,-0.01,-0.0108,-0.0082,-0.0017,-0.0016,-0.0015,-0.0867,-0.088,-0.0906,-0.0933,-0.0943,-0.0908,-0.0696,-0.0262,0.0009,0.0005,-0.007,-0.0417,-0.0393,-0.04,-0.0336,-0.0339,-0.0307,0,0]}],[{"header":{"parameterUnit":"m.s-1","parameterCategory":2,"la1":30.2992,"la2":30.254,"lo1":-89.0895,"lo2":-89.0443,"dy":0.0025,"dx":0.0025,"nx":19,"ny":19,"refTime":"2026-04-16T09:00:00:Z","depth":"4","parameterNumber":2,"parameterNumberName":"U-component_of_CURRENTS"},"data":[0,0,0,-0.0911,-0.0913,-0.1019,-0.1019,-0.1127,-0.1128,0,0,0,0,0,0,0,0,0,0,0,-0.0877,-0.0878,-0.0911,-0.0913,-0.1019,-0.1019,-0.1127,-0.1128,0,0,0,0,0,0,0,0,0,0,0,-0.0876,-0.0877,-0.0878,-0.0914,-0.1019,-0.1019,-0.1127,-0.1055,0,0,0,0,0,0,0,0,0,0,-0.0956,-0.0933,-0.0877,-0.0878,-0.0914,-0.1018,-0.1019,-0.1052,-0.1059,-0.107,0,-0.109,0,-0.1109,-0.1134,-0.1134,0,0,0,-0.0917,-0.0926,-0.0948,-0.0878,-0.0915,-0.1018,-0.0972,-0.1056,-0.1065,-0.108,-0.1092,-0.1096,-0.1111,-0.1135,-0.1135,-0.1246,-0.1246,0,0,-0.0911,-0.0902,-0.0943,-0.0954,-0.0947,-0.0969,-0.0975,-0.1062,-0.1075,-0.1092,-0.1099,-0.1112,-0.1135,-0.1136,-0.1245,-0.1246,0,0,0,-0.0892,-0.0898,-0.0919,-0.0949,-0.0969,-0.0972,-0.0979,-0.1072,-0.1077,-0.11,-0.1114,-0.1136,-0.1137,-0.1245,-0.1245,-0.1298,0,0,0,-0.0889,-0.0887,-0.0916,-0.0913,-0.0968,-0.1027,-0.0988,-0.1071,-0.1082,-0.1113,-0.1136,-0.1138,-0.1244,-0.1245,-0.1295,-0.1294,0,0,0,-0.0871,-0.0885,-0.0897,-0.0912,-0.0955,-0.1026,-0.1037,-0.1074,-0.109,-0.1135,-0.1138,-0.1244,-0.1245,-0.1293,-0.1291,-0.1317,0,0,0,-0.0858,-0.0879,-0.0897,-0.0927,-0.0954,-0.1015,-0.1037,-0.1092,-0.1131,-0.1136,-0.1244,-0.1245,-0.1292,-0.1289,-0.1315,-0.1131,0,0,0,-0.0871,-0.088,-0.0896,-0.0914,-0.0963,-0.1,-0.1076,-0.1135,-0.1154,-0.1213,-0.1216,-0.1296,-0.1291,-0.1317,-0.1204,0,0,0,0,-0.0891,-0.09,-0.0916,-0.0955,-0.1002,-0.1074,-0.1131,-0.1163,-0.1243,-0.1183,-0.1306,-0.1301,-0.1315,-0.1203,-0.1251,-0.1251,-0.1251,-0.1251,-0.1251,-0.0882,-0.091,-0.0947,-0.0994,-0.1045,-0.1134,-0.1192,-0.1253,-0.127,-0.1317,-0.1352,-0.1415,-0.1301,-0.1374,-0.1374,-0.1374,-0.1375,-0.1375,-0.1375,-0.0887,-0.0901,-0.097,-0.1017,-0.1103,-0.1179,-0.1284,-0.132,-0.1405,-0.1401,-0.1414,-0.1277,-0.138,-0.1379,-0.1378,-0.1378,-0.1377,-0.1377,-0.1377,-0.0858,-0.0871,-0.0918,-0.1004,-0.1113,-0.1221,-0.1287,-0.1385,-0.1443,-0.1476,-0.1359,-0.1444,-0.1429,-0.1498,-0.1498,-0.1498,-0.1498,-0.1499,-0.1499,-0.08,-0.0846,-0.0877,-0.099,-0.1049,-0.1156,-0.1306,-0.1336,-0.1431,-0.1382,-0.1495,-0.1456,-0.1452,-0.1436,-0.1501,-0.15,-0.15,-0.15,-0.15,-0.0736,-0.0751,-0.0778,-0.0826,-0.0959,-0.1032,-0.119,-0.1249,-0.1281,-0.1267,-0.1327,-0.1335,-0.1292,-0.1292,-0.1268,-0.1286,-0.1284,-0.1282,0,-0.0668,-0.0688,-0.067,-0.0703,-0.0782,-0.0937,-0.0951,-0.1032,-0.1137,-0.1118,-0.1262,-0.1328,-0.1333,-0.1281,-0.1278,-0.1247,0,0,0,-0.0613,-0.0607,-0.0564,-0.0606,-0.0691,-0.0816,-0.0954,-0.0957,-0.1132,-0.1104,-0.1228,-0.1242,-0.134,-0.1507,-0.146,-0.1455,-0.1426,0,0]},{"header":{"parameterUnit":"m.s-1","parameterCategory":2,"la1":30.2992,"la2":30.254,"lo1":-89.0895,"lo2":-89.0443,"dy":0.0025,"dx":0.0025,"nx":19,"ny":19,"refTime":"2026-04-16T09:00:00:Z","depth":"4","parameterNumber":3,"parameterNumberName":"V-component_of_CURRENTS"},"data":[0,0,0,0.001,0.0009,0.0014,0.0015,0.0087,0.0088,0,0,0,0,0,0,0,0,0,0,0,0.0013,0.0013,0.001,0.0009,0.0014,0.0015,0.0087,0.0088,0,0,0,0,0,0,0,0,0,0,0,0.0014,0.0013,0.0013,0.0009,0.0014,0.0015,0.0087,0.0069,0,0,0,0,0,0,0,0,0,0,0.0057,0.0046,0.0013,0.0013,0.0009,0.0014,0.0015,0.0068,0.007,0.0101,0,0.0096,0,0.0089,0.0093,0.0094,0,0,0,0.002,0.0044,0.0044,0.0013,0.0009,0.0014,0.0015,0.0069,0.0072,0.0104,0.0097,0.0099,0.009,0.0094,0.0094,0.0161,0.0161,0,0,0.002,0.002,0.0041,0.0045,0.0006,0.0015,0.0015,0.007,0.0074,0.0098,0.0101,0.0091,0.0095,0.0095,0.0161,0.0161,0,0,0,0.0012,0.0019,0.0017,0.0043,0.0035,0.0015,0.0015,0.0072,0.007,0.0101,0.0092,0.0095,0.0096,0.0161,0.0161,0.0127,0,0,0,0.0012,0.0014,0.0016,0.0017,0.0034,0.0044,0.0016,0.0066,0.0072,0.0091,0.0095,0.0097,0.0161,0.0161,0.0128,0.0086,0,0,0,0.0014,0.0014,0.0012,0.0017,0.0013,0.0042,0.0044,0.0067,0.0066,0.0094,0.0097,0.0161,0.0161,0.0128,0.0088,0.0128,0,0,0,0.0017,-0.0003,0.0012,-0.001,0.0013,0.0014,0.0043,0.0054,0.0074,0.0095,0.0161,0.0161,0.0128,0.0089,0.0128,0.0134,0,0,0,-0.0012,-0.0007,-0.0021,-0.0008,-0.0027,0.0015,0.002,0.0058,0.0092,0.0149,0.015,0.0128,0.0088,0.0128,0.0152,0,0,0,0,-0.0033,-0.0046,-0.0046,-0.0054,-0.0038,-0.0021,0.0024,0.0056,0.0102,0.0103,0.0143,0.0119,0.0146,0.0151,0.0162,0.0162,0.0162,0.0162,0.0162,-0.0071,-0.0073,-0.0103,-0.0101,-0.0086,-0.0035,-0.0008,0.0047,0.0092,0.011,0.0104,0.0123,0.0128,0.0134,0.0134,0.0134,0.0134,0.0134,0.0134,-0.0129,-0.0157,-0.015,-0.0179,-0.0145,-0.0124,-0.0041,0.0002,0.0074,0.009,0.012,0.0129,0.0131,0.0131,0.0132,0.0132,0.0133,0.0133,0.0133,-0.0162,-0.0181,-0.0197,-0.0237,-0.0237,-0.0185,-0.0153,-0.0078,0.0025,0.0047,0.0108,0.0112,0.0103,0.0089,0.0089,0.0089,0.0089,0.0089,0.0089,-0.019,-0.0213,-0.0265,-0.0298,-0.0323,-0.031,-0.0218,-0.0142,-0.0024,0.0057,0.0049,0.0109,0.011,0.0102,0.0089,0.0089,0.0089,0.0089,0.0089,-0.0243,-0.025,-0.0324,-0.0365,-0.0416,-0.0398,-0.0322,-0.0127,-0.0033,0.0072,0.0091,0.009,0.0109,0.0111,0.0103,0.009,0.009,0.009,0,-0.0273,-0.0286,-0.0375,-0.0441,-0.0471,-0.0441,-0.0299,-0.0176,-0.0019,-0.0024,-0.0037,-0.0027,-0.0023,-0.0013,-0.0011,-0.0026,0,0,0,-0.0312,-0.0325,-0.039,-0.0451,-0.049,-0.0345,-0.0252,-0.0174,-0.0064,0.0068,0.0091,0.009,0.006,0.0089,0.0117,0.0119,0.0108,0,0]}]]